Showing default

LONGJIANG 3, 56874

Orbit data source: Space-Track

LONGJIANG 3, 56874 is a payload satellite owned by Harbin (CN) in LEO that was launched on Fri, 09 Jun 2023 UTC via a KUAIZHOU-1A launch vehicle from the Jiuquan Satellite Launch Center, China (JSC). Payload-class satellites include a variety of spacecraft equipped with specific instruments for various scientific and technological missions. These include communications satellites like Starlink; space stations such as the ISS; scientific satellites like the Hubble; Earth observation satellites from companies like Planet Labs, Umbra, and HawkEye 360; GPS; miniature CubeSats for education and research; and military/defense satellites.

Loading next visibility...
Identifier
56874, 2023-082A
Orbit
LEO
Country
Flag of CNCN / PRC
Related business
Manufacturer
HITSAT
Mission
Operational Amateur Communications
Bus & Motor
SATWARE-CS200, Unknown motor
Mass
~120 kg wet, ~120 kg dry
Launch date (UTC)
2023-06-09 (3 years ago)
Launch vehicle
KUAIZHOU-1A
Launch site
Jiuquan Satellite Launch Center, China (JSC)
Object type
Payload
Rocket body
Debris
Shape & HBR
Box, 0.8 m
Radar Cross Section
2.000 m², Medium (>0.1 m² and < 1m²)

Expand to show TLE details & history
Last TLE update: 16 hours ago

TLE from 16 hours ago
0 LONGJIANG 3
1 56874U 23082A   25348.94934856  .00023463  00000-0  71415-3 0  9994
2 56874  49.1080 271.0726 0005387 286.6940  73.3415 15.33804035141008
Epoch: 2025-12-14T22:47Z
TLE epoch observation values (Epoch: 2025-12-14T22:47:03.715Z)
Latitude
-0.00004°
Longitude
-154.54784°
Altitude
463.878 km
Speed
7.637 km/s
True Right ascension
18h 04m 17s
True Declination
0° 00' 00"
Sunlit
Object was in daylight at epoch
Visualization orbit readout
Latitude
Unknown
Longitude
Unknown
Altitude
Unknown
Speed
Unknown
Apparent Right ascension
Unknown
Apparent Declination
Unknown
Sunlit
N/A
Visualization observer readout
Local Sidereal Time
13:26:09
Azimuth
Unknown
Elevation
Unknown
Doppler factor
Unknown
Orbital elements
Apogee altitude
469.085 km
Perigee altitude
461.712 km
Semi-major axis
6,843.536 km
Eccentricity
0.00054
Inclination
49.108°
RAAN
271.0726°
Arg. of periapsis
286.694°
True anomaly
73.40065°
Mean anomaly
73.3415°
Eccentric anomaly
73.37107°
Mean motion
3.83374 °/min
Orbital period
93.9 mins
BSTAR
0.00071415
Loading maneuver chart data...
Computing Atmospheric mass density...
Loading historical data...
Loading historical data...
Loading historical data...
Loading historical data...
Loading historical data...
Loading historical data...
Loading historical data...
Other satellites on launch #82 in the year 2023 (2023-06-09 UTC)

Documentation

Showing up to 5 results
|